{"data":{"norad_id":58136,"epoch":"2026-09-20T22:00:03.000096Z","epoch_age_seconds":104306,"freshness":"FRESH","line1":"1 58136U 23162U   26263.91670139  .00445511  00000+0  33930-2 0  9991","line2":"2 58136  42.9835  83.8277 0030766 291.0763  49.4027 15.69553822  5952","mean_motion":15.69553822,"eccentricity":0.0030766,"inclination_deg":42.9835,"raan_deg":83.8277,"arg_perigee_deg":291.0763,"mean_anomaly_deg":49.4027,"bstar":0.003393,"rev_number":595,"period_min":91.745818449544,"perigee_km":339.4426224049,"apogee_km":380.90479586034,"semimajor_km":6738.3107091326,"source":"CELESTRAK","updated_at":"2026-09-21T09:00:33.794312Z"}}